STARLINK-3928 (52606 NORAD) Tracking and Keplerian Element Data

This shows tracking and keplerian element data for the satellite.

Feedback or suggestion? Click here.




ElementValue
Catalog52606
NameSTARLINK-3928
Epoch Orbit130
Epoch Day228.91667824
Epoch Year2022
RAAN358.5054
Inclination53.2175
Eccentricity0.0001519
Argument of Perigee48.7259
Mean Anonmoly64.708
Mean Motion15.08837359
Decay Rate9.295E-05
L11 52606U 22052J 22228.91667824 .00009295 00000+0 60136-3 0 9992
L22 52606 53.2175 358.5054 0001519 48.7259 64.7080 15.08837359 1303

Live tracking and technical data element details for STARLINK-3928 (NORAD 52606). STARLINK-3928 can be tracked NOW for your location showing map with azimuth and elevation plus other details from your city location.

Track the satellite on the map from your city or location and see movement details for azimuth, elevation, latitude, longitude, range, height, and movement on the map or in text.







IsCatalogInMostPopularTable: catalog: 52606, numindb: 6
Update: records affected: 1



GetName: 52606 STARLINK-3928

Hit Count: updated at: Thu, 18 Aug 2022 20:09:29 GMT